AO-07 1 07530U 74089B 26072.48660519 -.00000021 00000-0 16185-3 0 9997 2 07530 101.9967 84.7174 0011948 314.7647 202.3118 12.53696423348526 UO-11 1 14781U 84021B 26072.43304581 .00001834 00000-0 19332-3 0 9998 2 14781 97.7951 39.1529 0008651 132.5836 227.6114 14.90521358242861 AO-27 1 22825U 93061C 26072.62283660 .00000127 00000-0 65293-4 0 9997 2 22825 98.6973 140.0357 0008754 28.2540 331.9116 14.30914557693335 FO-29 1 24278U 96046B 26072.19543315 .00000012 00000-0 49734-4 0 9990 2 24278 98.5376 294.1407 0349676 345.6750 13.4670 13.53268932460187 GO-32 1 25397U 98043D 26072.39277055 .00000119 00000-0 71391-4 0 9991 2 25397 99.0030 62.7561 0002155 113.7552 246.3852 14.24407312437690 ISS 1 25544U 98067A 26072.38526547 .00010392 00000-0 19895-3 0 9997 2 25544 51.6324 54.0842 0007910 188.2233 171.8627 15.48625615556900 NO-44 1 26931U 01043C 26072.60951062 .00000161 00000-0 91158-4 0 9991 2 26931 67.0500 131.4754 0007004 265.0606 94.9697 14.31914414276766 SO-50 1 27607U 02058C 26072.46172483 .00002103 00000-0 26508-3 0 9999 2 27607 64.5526 65.1060 0075301 280.0120 79.2494 14.82801116250261 CO-55 1 27844U 03031E 26072.49788693 .00000426 00000-0 20331-3 0 9997 2 27844 98.6777 82.2494 0010739 102.5935 257.6446 14.24269872178055 RS-22 1 27939U 03042A 26072.66544649 .00001115 00000-0 18072-3 0 9999 2 27939 98.3446 254.3370 0010696 206.5621 243.4810 14.73265840201481 CO-65 1 32785U 08021C 26072.56107092 .00008593 00000-0 55549-3 0 9999 2 32785 97.8203 52.1020 0009180 5.6192 354.5137 15.08433027970778 CO-66 1 32791U 08021J 26072.45464879 .00021121 00000-0 74555-3 0 9993 2 32791 97.7517 66.0416 0000826 341.4508 18.6700 15.29260072972648 RS-30 1 32953U 08025A 26072.57082286 .00000010 00000-0 -68562-6 0 9997 2 32953 82.5007 54.9075 0019664 156.8126 203.3846 12.43175978807818 SRMSAT 1 37841U 11058D 26071.88014721 .00000480 00000-0 11685-3 0 9991 2 37841 19.9720 282.3949 0011727 224.2053 250.8798 14.11549135744194 ZACUBE-1 1 39417U 13066B 26072.46490286 .00004651 00000-0 36825-3 0 9999 2 39417 97.8158 34.3075 0042994 207.4020 152.4936 15.00365828666375 Delfi-N3xt 1 39428U 13066N 26072.56582594 .00007789 00000-0 69949-3 0 9994 2 39428 97.8337 353.0630 0076584 163.5406 196.8327 14.93732262660344 GOMX-1 1 39430U 13066Q 26072.43461115 .00001586 00000-0 24491-3 0 9990 2 39430 97.6572 278.9062 0130010 25.5646 335.1914 14.69112735655858 LO-74 1 39440U 13066AA 26072.31676754 .00006076 00000-0 57111-3 0 9999 2 39440 97.8807 20.9950 0058193 346.9336 13.0372 14.93003467662687 AO-73 1 39444U 13066AE 26072.35704843 .00007962 00000-0 51353-3 0 9995 2 39444 97.8186 41.9580 0037754 166.4701 193.7548 15.07980612665219 DTUSAT-2 1 40030U 14033W 26072.42764939 .00008689 00000-0 48741-3 0 9997 2 40030 98.0852 64.1897 0007529 187.5673 172.5445 15.13610348638193 LILACSAT-2 1 40908U 15049K 26072.58701956 .00018461 00000-0 35231-3 0 9995 2 40908 97.4807 105.9474 0005928 227.7194 132.3554 15.48180286580946 Horyu-4 1 41340U 16012D 26072.29741668 .00099424 00000-0 10160-2 0 9990 2 41340 30.9920 42.7677 0003826 189.7666 170.2913 15.63604101555670 Lapan A3 1 41603U 16040E 26072.61644663 .00004732 00000-0 15331-3 0 9990 2 41603 97.1485 71.9569 0010538 9.5880 350.5562 15.32425326540170 CAS-2T 1 41847U 16066G 26072.17045790 .00001493 00000-0 21683-3 0 9993 2 41847 98.3881 148.9820 0343543 60.9653 302.5499 14.44481022490933 TechnoSat 1 42829U 17042E 26072.41927998 .00003589 00000-0 26075-3 0 9993 2 42829 97.4146 233.8258 0019209 63.5823 296.7372 15.04316532472309 AO-91 1 43017U 17073E 26072.10516588 .00014086 00000-0 63628-3 0 9991 2 43017 97.4871 301.3303 0154280 300.1874 58.4150 15.10964684450870 S-Net D 1 43186U 18014G 26072.30557223 .00005651 00000-0 30020-3 0 9995 2 43186 97.5432 337.7273 0008440 3.4215 356.7074 15.15678884444239 S-Net B 1 43187U 18014H 26072.51325208 .00006686 00000-0 35466-3 0 9993 2 43187 97.5438 337.9168 0008991 358.3154 1.8046 15.15656098444269 S-Net A 1 43188U 18014J 26072.23888210 .00005652 00000-0 30018-3 0 9990 2 43188 97.5448 337.8360 0008848 359.2014 0.9202 15.15685309444227 S-Net C 1 43189U 18014K 26072.31855373 .00005768 00000-0 30650-3 0 9994 2 43189 97.5464 337.9750 0009942 350.2350 9.8687 15.15645424442788 Ten-Koh 1 43677U 18084G 26072.57120194 .00003173 00000-0 24370-3 0 9997 2 43677 98.0796 260.9210 0011903 81.4227 278.8345 15.02489094401808 PO-101 1 43678U 18084H 26072.65807994 .00002807 00000-0 23072-3 0 9998 2 43678 98.1040 264.8574 0012184 114.9346 245.3143 14.99983974401899 QO-100 1 43700U 18090A 26072.57527226 .00000144 00000-0 00000-0 0 9994 2 43700 0.0160 140.2126 0001100 209.1120 54.7777 1.00271638 26717 MinXSS-2 1 43758U 18099A 26072.15922921 .00033387 00000-0 81961-3 0 9994 2 43758 97.4621 146.0607 0007730 245.4229 114.6212 15.40587452399310 AO-95 1 43770U 18099N 26072.12206546 .00013648 00000-0 55688-3 0 9998 2 43770 97.4510 132.8256 0008084 333.7998 26.2829 15.24512623398570 SNUSat 2 1 43782U 18099AA 26072.61614932 .00010636 00000-0 49254-3 0 9993 2 43782 97.4196 127.5186 0009011 268.5410 91.4793 15.20254186398501 SnugLite 1 43784U 18099AC 26072.61021774 .00014737 00000-0 59363-3 0 9999 2 43784 97.4003 127.9261 0001390 249.8249 110.2840 15.24952138398747 ITASat 1 1 43786U 18099AE 26072.59851889 .00008519 00000-0 42443-3 0 9998 2 43786 97.4163 126.0477 0011826 332.3128 27.7475 15.17747187398401 EAGLET 1 1 43790U 18099AJ 26072.59101632 .00004953 00000-0 29066-3 0 9991 2 43790 97.4367 124.7850 0010066 322.8128 37.2405 15.12151470397880 ESEO 1 43792U 18099AL 26072.51429680 .00002325 00000-0 17261-3 0 9996 2 43792 97.4114 113.9589 0010556 303.9234 56.0988 15.03934961397422 JO-97 1 43803U 18099AX 26072.60945063 .00020456 00000-0 69571-3 0 9993 2 43803 97.4248 135.2859 0004924 239.8747 120.2006 15.30462837398994 Suomi 100 1 43804U 18099AY 26072.15795779 .00013071 00000-0 50867-3 0 9994 2 43804 97.4315 133.0160 0009004 255.9229 104.1009 15.26102019398766 ISAT 1 43879U 18111D 26072.33585856 .00063446 00000-0 10643-2 0 9992 2 43879 97.5899 1.2842 0002164 307.3523 52.7532 15.51602115396248 UWE-4 1 43880U 18111E 26072.24853570 .00032621 00000-0 81013-3 0 9996 2 43880 97.5846 356.6658 0006796 325.7910 34.2897 15.40247621395987 Sparrow 1 43881U 18111F 26072.27945820 .00078154 00000-0 11397-2 0 9998 2 43881 97.6101 5.6417 0003386 34.1004 326.0466 15.55424593396384 Prox-1 1 44339U 19036A 26072.25432317 .00014102 00000-0 14632-2 0 9992 2 44339 23.9962 33.8959 0006132 4.4081 355.6471 14.88160496359153 Taurus 1 1 44530U 19059C 26072.57178770 .00005488 00000-0 90519-3 0 9991 2 44530 98.6310 231.5974 0008560 244.8475 115.1842 14.70879250344588 TO-108 1 44881U 19093C 26072.65757815 .00000815 00000-0 98430-4 0 9990 2 44881 97.7604 147.2017 0014696 45.7451 314.4969 14.86351122337220 RS-44 1 44909U 19096E 26072.39074070 .00000033 00000-0 86904-4 0 9995 2 44909 82.5208 43.3542 0217772 8.6796 351.7974 12.79747528290094 SALSAT 1 46495U 20068K 26072.47071752 .00011094 00000-0 40525-3 0 9998 2 46495 97.8859 69.8211 0008092 280.4090 79.6236 15.28268439300739 CSS (TIANHE-1) 1 48274U 21035A 26072.55482282 .00030215 00000-0 35350-3 0 9999 2 48274 41.4662 184.6407 0006740 297.0069 63.0081 15.60878289278212 CUTE 1 49263U 21088D 26072.19180922 .00045112 00000-0 42245-3 0 9995 2 49263 97.4221 164.5901 0003102 296.8852 63.2092 15.67110426247427 TeikyoSat 4 1 49396U 21102B 26072.52105515 .00002328 00000-0 15041-3 0 9997 2 49396 97.3790 105.6929 0010497 261.2289 98.7752 15.09136904238291 Z-Sat 1 49399U 21102E 26072.60922414 .00005013 00000-0 25290-3 0 9995 2 49399 97.3462 110.8273 0015748 215.7899 144.2280 15.17466489238943 KOSEN 1 1 49402U 21102H 26072.54546480 .00009760 00000-0 38813-3 0 9996 2 49402 97.3332 116.5933 0014247 178.8515 181.2758 15.25393680239434 HO-113 1 50466U 21131B 26072.60003896 .00000700 00000-0 23018-3 0 9992 2 50466 98.4951 165.5325 0004716 39.7061 320.4472 14.41257212221343 SNUGLITE 2 1 52899U 22065F 26072.36204198 .00001433 00000-0 28180-3 0 9991 2 52899 98.2038 217.4523 0006718 332.4112 27.6733 14.64141540196977 UmKA 1 (RS40S) 1 57172U 23091G 26072.58884255 .00008132 00000-0 38337-3 0 9990 2 57172 97.5175 131.6793 0014652 93.9082 266.3828 15.19660855149484 CubeBel-2 (EU11S) 1 57175U 23091K 26072.63889801 .00015033 00000-0 57156-3 0 9999 2 57175 97.5169 135.1191 0011817 94.4611 265.7977 15.26817154149713 RS-38S 1 57189U 23091Z 26072.61483828 .00018486 00000-0 58273-3 0 9997 2 57189 97.5193 140.3680 0008571 60.2784 299.9310 15.32908244150036 SONATE-2 1 59112U 24043Q 26072.33562981 .00038262 00000-0 64252-3 0 9998 2 59112 97.5392 217.4408 0007917 191.2920 168.8155 15.51660207112998 GRBBeta 1 60237U 24128C 26072.29300574 .00005853 00000-0 40414-3 0 9999 2 60237 61.9899 192.5119 0051124 114.7393 245.9033 15.05843278 91820 Curium One 1 60242U 24128H 26072.32693754 .00010548 00000-0 62261-3 0 9995 2 60242 61.9790 184.8937 0050741 111.3229 249.3293 15.10938533 91969 ROBUSTA-3A 1 60243U 24128J 26072.30640292 .00010449 00000-0 62987-3 0 9998 2 60243 61.9862 186.9255 0051370 108.7588 251.9090 15.10161838 91930 CatSat 1 60246U 24125J 26072.56424915 .00052752 00000-0 95369-3 0 9991 2 60246 97.2207 284.4604 0027739 173.6501 186.5107 15.49095154 92547 HYPERVIEW-1G (RS66S) 1 61772U 24199AP 26072.60959277 .00077835 00000-0 10104-2 0 9998 2 61772 97.3082 308.7845 0006272 263.9540 96.1002 15.58551209119713 AO-123 1 61781U 24199AY 26072.59484257 .00010795 00000-0 32811-3 0 9999 2 61781 97.3155 302.1445 0012559 294.8085 65.1851 15.34148835119269 JINJUSat 1B 1 63210U 25052A 26072.52163296 .00021038 00000-0 71769-3 0 9994 2 63210 97.4114 329.3109 0005450 74.2001 285.9841 15.30354181 55452 NUSHSAT 1 1 63211U 25052B 26072.23941223 .00021886 00000-0 70757-3 0 9994 2 63211 97.4086 329.3175 0005546 74.4171 285.7682 15.32080575 55434 TEVEL2-4 1 63213U 25052D 26072.22354262 .00018925 00000-0 63172-3 0 9999 2 63213 97.4016 328.6444 0004843 89.0068 271.1728 15.31084268 55416 TEVEL2-5 1 63214U 25052E 26071.64652685 .00020612 00000-0 69080-3 0 9995 2 63214 97.4014 328.0409 0004756 90.1067 270.0719 15.30936720 55321 TEVEL2-6 1 63215U 25052F 26072.50614614 .00023745 00000-0 79517-3 0 9998 2 63215 97.4018 328.8842 0004892 88.9740 271.2062 15.30932507 55456 TEVEL2-1 1 63217U 25052H 26072.24391945 .00019218 00000-0 65313-3 0 9999 2 63217 97.3991 328.3512 0004870 99.0664 261.1128 15.30497635 55404 TEVEL2-3 1 63218U 25052J 26072.24141467 .00019121 00000-0 64913-3 0 9990 2 63218 97.3992 328.3604 0004931 98.7892 261.3908 15.30533668 55400 TEVEL2-2 1 63219U 25052K 26072.63685425 .00022870 00000-0 77595-3 0 9996 2 63219 97.3990 328.7439 0004895 98.1267 262.0529 15.30516952 55468 TEVEL2-9 1 63237U 25052AD 26072.49878184 .00020082 00000-0 71857-3 0 9994 2 63237 97.4058 328.1689 0008251 113.6112 246.5995 15.28787643 55397 TEVEL2-7 1 63238U 25052AE 26072.52363088 .00020183 00000-0 72702-3 0 9993 2 63238 97.4058 328.1448 0008355 113.8057 246.4060 15.28566839 55390 TEVEL2-8 1 63239U 25052AF 26072.20338630 .00017293 00000-0 62423-3 0 9991 2 63239 97.4057 327.8070 0008303 115.1166 245.0936 15.28530922 55342 HYDRA-W 1 63490U 25052BL 26071.64832811 .00219427 00000-0 22296-2 0 9993 2 63490 97.3931 332.9453 0009160 103.2079 257.0203 15.64435748 55650 HADES-ICM (SO-125) 1 63492U 25052BN 26072.16726290 .00147880 00000-0 19428-2 0 9992 2 63492 97.3931 332.7439 0009263 103.7653 256.4634 15.57958029 55689 Ten-Koh2 1 66174U 25241A 26072.42552678 .00014595 00000-0 62687-3 0 9990 2 66174 51.6353 55.0787 0005760 183.8769 176.2164 15.22885644 21523 SPIRONE 1 66657U 25274H 26072.63808647 .00003277 00000-0 31949-3 0 9997 2 66657 97.7439 3.3505 0011716 340.3962 19.6805 14.93101872 15966 K-HERO 1 66660U 25274L 26072.26836146 .00003048 00000-0 29415-3 0 9996 2 66660 97.7440 3.0746 0013640 344.4005 15.6793 14.93549459 15911 SNUGLITE-III DURI 1 66661U 25274M 26072.26000907 .00002647 00000-0 25557-3 0 9992 2 66661 97.7439 3.0817 0014331 345.1126 14.9670 14.93633881 15918 SilverSat 1 66909U 98067XV 26072.33066969 .00228210 00000-0 15396-2 0 9990 2 66909 51.6245 46.1985 0005407 105.6574 254.5022 15.73849745 15764 SAKHACUBE-CHOLBON 1 67290U 25313AU 26072.29660603 .00011177 00000-0 47768-3 0 9999 2 67290 97.4002 148.6362 0008805 340.7332 19.3571 15.22987993 11374 RS95S (QMR-KWT-2) 1 67291U 25313AV 26072.28318733 .00015738 00000-0 65885-3 0 9990 2 67291 97.4001 148.6533 0008427 338.9489 21.1400 15.23609932 11373 IO-86 1 40931U 25360.30710720 .00000000 00000-0 12800-3 0 00 2 40931 6.0006 332.5373 0012733 338.8432 8.1437 14.79075515 01